Overview Statistics Trail Chart Weather Telemetry Raw packets
 

This is the latest recevied weather packets stored in our database for station/object VK2TRB. If no packets are shown the sender has not sent any weather packets the latest 10 day(s).

<< 2 3 4 5 6 7 8 >>
Time Temp. Humidity Pressure Rain* Wind** Luminosity Snow
1788517318 13.89° C 87% 1014.7 hPa 0 mm - - -
1788516420 13.33° C 88% 1014.7 hPa 0 mm - - -
1788515519 13.33° C 87% 1014.6 hPa 0 mm - - -
1788514619 13.33° C 87% 1015 hPa 0 mm - - -
1788513718 13.89° C 86% 1015.2 hPa 0 mm - - -
1788512819 13.89° C 84% 1015.2 hPa 0 mm - - -
1788511920 14.44° C 82% 1015.3 hPa 0 mm - - -
1788511019 15° C 79% 1015.1 hPa 0 mm - - -
1788510119 15.56° C 77% 1015 hPa 0 mm - - -
1788509218 16.11° C 73% 1015.2 hPa 0 mm - - -
1788508319 16.67° C 69% 1015.3 hPa 0 mm - - -
1788507418 17.22° C 68% 1015.3 hPa 0 mm - - -
1788506520 17.78° C 66% 1015.3 hPa 0 mm - - -
1788505620 17.78° C 66% 1015.3 hPa 0 mm - - -
1788504720 17.78° C 65% 1015.3 hPa 0 mm - - -
1788503820 18.33° C 65% 1015.1 hPa 0 mm - - -
1788502920 17.78° C 67% 1015.1 hPa 0 mm - - -
1788502019 17.78° C 66% 1015.2 hPa 0 mm - - -
1788501119 17.78° C 67% 1015.3 hPa 0 mm - - -
1788500220 17.78° C 65% 1015.4 hPa 0 mm - - -
1788499320 17.78° C 65% 1015.4 hPa 0 mm - - -
1788498420 17.22° C 66% 1015.4 hPa 0 mm - - -
1788497520 17.22° C 66% 1015.3 hPa 0 mm - - -
1788496619 17.78° C 66% 1015.3 hPa 0 mm - - -
1788495721 17.78° C 66% 1015.4 hPa 0 mm - - -

* Rain latest hour (hover to see other rain measurements)
** Current wind speed in m/s (hover to see current wind gust speed)